Weather History for Lambertville, MI

Change the Weather History Date:

Monday, February 18, 2013

  Actual Average (KTOL) Record (KTOL)
Temperature  
Mean Temperature 32 °F 29 °F  
Max Temperature 49 °F 37 °F 59 °F (1961)
Min Temperature 16 °F 21 °F -9 °F (1936)
Degree Days  
Heating Degree Days 32 36  
Month to date heating degree days 682  
Since 1 July heating degree days 4231  
Cooling Degree Days 0 0  
Month to date cooling degree days 0  
Year to date cooling degree days 0  
Moisture  
Dew Point 21 °F    
Average Humidity 55    
Maximum Humidity 75    
Minimum Humidity 41    
Precipitation  
Precipitation 0.00 in 0.07 in 0.39 in (2009)
Month to date precipitation 1.28  
Year to date precipitation 3.33  
Snow  
Snow 0.00 in 0.40 in - ()
Month to date snowfall 6.4  
Since 1 July snowfall 27.5  
Snow Depth -    
Sea Level Pressure  
Sea Level Pressure 29.95 in    
Wind  
Wind Speed 7 mph (SSE)    
Max Wind Speed 15 mph    
Max Gust Speed 23 mph    
Visibility 10 miles    
Events Rain    
T = Trace of Precipitation, MM = Missing Value Source: NWS Daily Summary

Daily Weather History Graph

Daily Weather History Graph

Search for Another Location

Airport:

Trip Planner

Search our weather history database for the weather conditions in past years. The results will help you decide how hot, cold, wet, or windy it might be!

Date:

Astronomy

Feb. 18, 2013 Rise Set
Actual Time 7:25 AM EST 6:12 PM EST
Civil Twilight 6:57 AM EST 6:40 PM EST
Nautical Twilight 6:24 AM EST 7:12 PM EST
Astronomical Twilight 5:52 AM EST 7:45 PM EST
Moon 11:54 AM EST (2/18) 2:06 AM EST (2/18)
Length of Visible Light 11h 43m
Length of Day
10h 46m
First Quarter, 58% of the Moon is Illuminated
Feb 18
First Quarter
Feb 25
Full
Mar 4
Last Quarter
Mar 11
New
Mar 19
First Quarter

Hourly Weather History & Observations

Time (EST) Temp. Windchill Dew Point Humidity Pressure Visibility Wind Dir Wind Speed Gust Speed Precip Events Conditions
12:15 AM 18.0 °F 12.7 °F 9.1 °F 68% 30.20 in 10.0 mi SE 3.5 mph - N/A   Clear
12:35 AM 17.8 °F - 9.5 °F 70% 30.20 in 10.0 mi Calm Calm - N/A   Clear
12:55 AM 16.5 °F - 9.9 °F 75% 30.20 in 10.0 mi Calm Calm - N/A   Clear
1:15 AM 17.8 °F 12.5 °F 10.0 °F 72% 30.20 in 10.0 mi SE 3.5 mph - N/A   Clear
1:35 AM 18.9 °F 13.7 °F 10.2 °F 69% 30.20 in 10.0 mi SE 3.5 mph - N/A   Clear
1:55 AM 19.0 °F 13.9 °F 9.9 °F 67% 30.20 in 10.0 mi SSE 3.5 mph - N/A   Clear
2:15 AM 19.2 °F 14.1 °F 10.0 °F 67% 30.19 in 10.0 mi SSE 3.5 mph - N/A   Clear
2:35 AM 19.8 °F 14.7 °F 10.4 °F 67% 30.20 in 10.0 mi South 3.5 mph - N/A   Clear
2:55 AM 20.3 °F 13.8 °F 10.4 °F 66% 30.19 in 10.0 mi SE 4.6 mph - N/A   Clear
3:15 AM 20.5 °F 12.8 °F 10.6 °F 66% 30.19 in 10.0 mi SSE 5.8 mph - N/A   Clear
3:35 AM 21.2 °F 13.6 °F 10.8 °F 64% 30.18 in 10.0 mi SSE 5.8 mph - N/A   Clear
3:55 AM 21.6 °F 15.3 °F 10.9 °F 64% 30.18 in 10.0 mi South 4.6 mph - N/A   Clear
4:15 AM 21.6 °F 13.0 °F 10.8 °F 63% 30.17 in 10.0 mi SSE 6.9 mph - N/A   Clear
4:35 AM 21.2 °F 11.7 °F 10.4 °F 63% 30.17 in 10.0 mi South 8.1 mph - N/A   Clear
4:55 AM 21.2 °F 10.9 °F 10.4 °F 63% 30.15 in 10.0 mi SSE 9.2 mph - N/A   Clear
5:15 AM 21.2 °F 11.7 °F 10.4 °F 63% 30.15 in 10.0 mi SSE 8.1 mph - N/A   Clear
5:35 AM 21.2 °F 10.9 °F 10.4 °F 63% 30.14 in 10.0 mi SSE 9.2 mph - N/A   Clear
5:55 AM 21.7 °F 13.2 °F 10.9 °F 63% 30.13 in 10.0 mi SE 6.9 mph - N/A   Mostly Cloudy
6:15 AM 22.1 °F 12.8 °F 11.3 °F 63% 30.13 in 10.0 mi SSE 8.1 mph - N/A   Overcast
6:35 AM 22.1 °F 12.0 °F 11.1 °F 63% 30.12 in 10.0 mi SSE 9.2 mph - N/A   Overcast
6:55 AM 22.5 °F 11.7 °F 11.1 °F 62% 30.11 in 10.0 mi SSE 10.4 mph - N/A   Overcast
7:15 AM 22.8 °F 13.6 °F 11.3 °F 61% 30.10 in 10.0 mi SE 8.1 mph - N/A   Overcast
7:35 AM 23.0 °F 13.1 °F 11.3 °F 61% 30.10 in 10.0 mi SSE 9.2 mph - N/A   Overcast
7:55 AM 23.4 °F 13.5 °F 11.7 °F 61% 30.09 in 10.0 mi SE 9.2 mph - N/A   Overcast
8:15 AM 23.7 °F 14.0 °F 11.7 °F 60% 30.08 in 10.0 mi SE 9.2 mph 16.1 mph N/A   Scattered Clouds
8:35 AM 25.0 °F 14.8 °F 11.8 °F 57% 30.07 in 10.0 mi SE 10.4 mph 17.3 mph N/A   Clear
9:15 AM 27.5 °F 17.4 °F 12.0 °F 52% 30.05 in 10.0 mi SE 11.5 mph 19.6 mph N/A   Clear
9:35 AM 28.9 °F 19.8 °F 12.0 °F 49% 30.03 in 10.0 mi SSE 10.4 mph 18.4 mph N/A   Clear
9:55 AM 30.2 °F 21.3 °F 12.4 °F 48% 30.02 in 10.0 mi SSE 10.4 mph 18.4 mph N/A   Clear
10:15 AM 32.0 °F 23.0 °F 12.9 °F 45% 30.01 in 10.0 mi SSE 11.5 mph 18.4 mph N/A   Clear
10:35 AM 32.5 °F 24.8 °F 13.5 °F 45% 30.00 in 10.0 mi SSE 9.2 mph 18.4 mph N/A   Clear
10:55 AM 33.8 °F 25.3 °F 14.0 °F 44% 30.00 in 10.0 mi South 11.5 mph - N/A   Clear
11:15 AM 34.7 °F 26.4 °F 14.4 °F 43% 29.99 in 10.0 mi SSE 11.5 mph 19.6 mph N/A   Clear
11:35 AM 36.5 °F 29.7 °F 15.3 °F 42% 29.98 in 10.0 mi South 9.2 mph 17.3 mph N/A   Clear
11:55 AM 37.8 °F 30.2 °F 16.5 °F 42% 29.97 in 10.0 mi SSE 11.5 mph 18.4 mph N/A   Clear
12:15 PM 38.7 °F 30.9 °F 17.4 °F 42% 29.95 in 10.0 mi SSE 12.7 mph 16.1 mph N/A   Clear
12:35 PM 40.5 °F 33.6 °F 18.5 °F 41% 29.94 in 10.0 mi South 11.5 mph 17.3 mph N/A   Clear
12:55 PM 40.8 °F 32.9 °F 19.6 °F 43% 29.93 in 10.0 mi South 15.0 mph 23.0 mph N/A   Clear
1:15 PM 41.9 °F 35.4 °F 21.2 °F 44% 29.91 in 10.0 mi South 11.5 mph 21.9 mph N/A   Clear
1:35 PM 42.4 °F 35.3 °F 22.3 °F 45% 29.89 in 10.0 mi South 13.8 mph 20.7 mph N/A   Clear
1:55 PM 44.1 °F 38.6 °F 23.7 °F 45% 29.89 in 10.0 mi South 10.4 mph 21.9 mph N/A   Clear
2:15 PM 45.7 °F 40.2 °F 25.3 °F 45% 29.88 in 10.0 mi South 11.5 mph 19.6 mph N/A   Clear
2:35 PM 46.6 °F - 26.4 °F 45% 29.87 in 10.0 mi South 11.5 mph 19.6 mph N/A   Clear
2:55 PM 48.0 °F - 27.7 °F 45% 29.85 in 10.0 mi South 12.7 mph 20.7 mph N/A   Clear
3:15 PM 48.4 °F - 28.4 °F 46% 29.85 in 10.0 mi South 15.0 mph 19.6 mph N/A   Clear
3:35 PM 49.1 °F - 28.8 °F 45% 29.84 in 10.0 mi South 8.1 mph 16.1 mph N/A   Clear
3:55 PM 48.6 °F - 29.3 °F 47% 29.83 in 10.0 mi South 9.2 mph - N/A   Clear
4:15 PM 49.5 °F - 30.7 °F 49% 29.82 in 10.0 mi South 12.7 mph 19.6 mph N/A   Clear
4:35 PM 49.1 °F - 30.9 °F 50% 29.81 in 10.0 mi SSE 9.2 mph - N/A   Clear
4:55 PM 49.1 °F - 31.1 °F 50% 29.80 in 10.0 mi South 8.1 mph - N/A   Scattered Clouds
5:15 PM 49.1 °F - 32.0 °F 52% 29.79 in 10.0 mi SSE 8.1 mph - N/A   Scattered Clouds
5:35 PM 48.7 °F - 32.0 °F 52% 29.78 in 10.0 mi SSE 9.2 mph - N/A   Mostly Cloudy
5:55 PM 48.4 °F - 32.2 °F 54% 29.78 in 10.0 mi SSE 8.1 mph - N/A   Overcast
6:15 PM 47.7 °F - 32.2 °F 55% 29.78 in 10.0 mi SSE 8.1 mph - N/A   Overcast
6:35 PM 47.5 °F - 32.5 °F 56% 29.77 in 10.0 mi SSE 10.4 mph 17.3 mph N/A Rain Light Rain
6:55 PM 48.2 °F - 32.7 °F 55% 29.77 in 10.0 mi South 11.5 mph 17.3 mph N/A   Overcast
7:15 PM 48.4 °F - 32.2 °F 54% 29.77 in 10.0 mi South 10.4 mph 21.9 mph N/A   Overcast
7:35 PM 47.7 °F - 32.0 °F 55% 29.75 in 10.0 mi SSE 10.4 mph 17.3 mph N/A   Mostly Cloudy
7:55 PM 46.6 °F - 32.0 °F 57% 29.75 in 10.0 mi SSE 10.4 mph 16.1 mph N/A   Overcast
8:15 PM 46.8 °F - 31.8 °F 56% 29.74 in 10.0 mi South 12.7 mph 18.4 mph N/A   Overcast
8:35 PM 47.3 °F - 31.5 °F 54% 29.72 in 10.0 mi South 10.4 mph 21.9 mph N/A   Overcast
8:55 PM 47.3 °F - 31.5 °F 54% 29.71 in 10.0 mi South 12.7 mph 23.0 mph N/A   Overcast
9:15 PM 47.8 °F - 31.6 °F 53% 29.70 in 10.0 mi South 9.2 mph 18.4 mph N/A   Overcast
9:35 PM 48.2 °F - 32.0 °F 54% 29.70 in 10.0 mi South 10.4 mph 19.6 mph N/A   Overcast
9:55 PM 48.6 °F - 32.2 °F 53% 29.69 in 10.0 mi South 10.4 mph 21.9 mph N/A   Overcast
10:15 PM 48.7 °F - 33.1 °F 55% 29.67 in 10.0 mi South 8.1 mph 19.6 mph N/A   Overcast
10:35 PM 48.2 °F - 33.4 °F 57% 29.66 in 10.0 mi South 9.2 mph - N/A   Overcast
10:55 PM 47.5 °F - 33.3 °F 58% 29.65 in 10.0 mi SSE 8.1 mph - N/A   Overcast
11:15 PM 46.9 °F - 33.1 °F 59% 29.64 in 10.0 mi South 9.2 mph - N/A   Overcast
11:35 PM 46.8 °F - 32.9 °F 59% 29.63 in 10.0 mi South 9.2 mph - N/A   Overcast
11:55 PM 47.3 °F - 32.4 °F 56% 29.62 in 10.0 mi South 10.4 mph 18.4 mph N/A   Overcast